This is the latest recevied weather packets stored in our database for station/object WX4HP-13. If no packets are shown the sender has not sent any weather packets the latest 10 day(s).
| Time | Temp. | Humidity | Pressure | Rain* | Wind** | Luminosity | Snow |
|---|---|---|---|---|---|---|---|
| 1777813196 | 10.56° C | 76% | 1022 hPa | 0 mm | - | - | - |
| 1777812896 | 10.56° C | 77% | 1022 hPa | 0 mm | - | - | - |
| 1777812596 | 10.56° C | 78% | 1021.9 hPa | 0 mm | - | - | - |
| 1777812296 | 10° C | 81% | 1022.1 hPa | 0 mm | - | - | - |
| 1777811997 | 9.44° C | 81% | 1021.9 hPa | 0 mm | - | - | - |
| 1777811695 | 8.89° C | 83% | 1021.9 hPa | 0 mm | - | - | - |
| 1777811397 | 8.89° C | 83% | 1022 hPa | 0 mm | - | - | - |
| 1777811094 | 8.89° C | 84% | 1021.8 hPa | 0 mm | - | - | - |
| 1777810796 | 8.33° C | 86% | 1021.9 hPa | 0 mm | - | - | - |
| 1777810494 | 8.33° C | 87% | 1022 hPa | 0 mm | - | - | - |
| 1777810196 | 7.78° C | 89% | 1021.9 hPa | 0 mm | - | - | - |
| 1777809895 | 7.22° C | 91% | 1022 hPa | 0 mm | - | - | - |
| 1777809596 | 7.22° C | 93% | 1022.1 hPa | 0 mm | - | - | - |
| 1777809297 | 6.67° C | 95% | 1022.1 hPa | 0 mm | - | - | - |
| 1777808996 | 6.11° C | 95% | 1022.1 hPa | 0 mm | - | - | - |
| 1777808695 | 5.56° C | 95% | 1022.1 hPa | 0 mm | - | - | - |
| 1777808397 | 5° C | 95% | 1022.4 hPa | 0 mm | - | - | - |
| 1777808094 | 4.44° C | 95% | 1022.4 hPa | 0 mm | - | - | - |
| 1777807796 | 4.44° C | 95% | 1022.3 hPa | 0 mm | - | - | - |
| 1777807496 | 4.44° C | 95% | 1022.2 hPa | 0 mm | - | - | - |
| 1777807194 | 4.44° C | 95% | 1022.2 hPa | 0 mm | - | - | - |
| 1777806895 | 4.44° C | 95% | 1022.1 hPa | 0 mm | - | - | - |
| 1777806596 | 4.44° C | 95% | 1022.2 hPa | 0 mm | - | - | - |
| 1777806295 | 5° C | 95% | 1022 hPa | 0 mm | - | - | - |
| 1777805996 | 5° C | 95% | 1021.9 hPa | 0 mm | - | - | - |
* Rain latest hour (hover to see other rain measurements)
** Current wind speed in m/s (hover to see current wind gust speed)